Wetbulb
36.74 38.79 39.88 39.57 39.00 38.54 38.48 38.98 39.11 38.80 39.30 38.91 38.05 36.96 36.28 36.55 36.20 37.55 38.93 38.51 38.48 38.01 35.42 34.31 33.77 33.53 32.33 31.47 32.25 31.52 30.64 30.19 32.01 30.48 31.10 33.43 37.19 36.55 35.63 38.81 38.48 40.07 39.69
35.50 37.45 37.97 37.56 38.69 37.75 38.02 38.50 40.02 40.57 40.37 39.57 38.46 37.93 36.83 36.63 37.15 37.73 37.84 38.45 37.95 37.34 35.76 34.13 33.31 32.64 31.89 31.42 30.84 30.35 29.54 29.75 30.62 28.31 28.72 27.98 31.79 33.89 35.15 37.37 37.40 37.67 37.60
34.80 36.14 36.49 36.07 35.81 36.67 36.86 39.57 40.34 40.06 39.74 39.27 38.71 38.02 37.73 37.16 36.32 36.11 36.28 37.67 37.69 37.18 35.99 34.48 33.18 32.12 31.69 30.70 30.05 29.47 28.88 27.51 29.19 30.50 28.78 25.73 25.48 28.36 33.83 34.05 34.98 35.32 35.18
34.15 36.47 35.68 34.73 35.09 35.66 38.04 39.93 39.96 39.85 39.53 38.99 38.14 36.95 36.18 35.65 36.64 36.40 36.58 36.47 36.77 35.83 36.38 35.34 33.51 32.25 31.81 30.34 29.84 31.78 29.28 28.74 27.12 29.38 32.75 29.73 29.38 26.48 25.81 31.31 33.53 33.77 34.27
34.22 35.04 35.33 36.53 35.90 37.16 37.87 38.36 38.96 39.07 38.61 37.67 37.16 35.85 35.35 35.26 35.18 34.73 34.35 34.17 34.88 35.34 35.05 34.65 33.19 32.06 31.53 30.13 29.36 29.01 28.50 28.96 27.83 27.70 28.45 28.21 28.97 28.60 27.56 25.61 28.42 31.28 34.21
32.11 34.04 34.64 35.72 35.86 37.39 37.46 37.58 38.09 38.05 37.91 37.12 35.84 35.03 34.43 34.30 33.40 32.86 32.60 33.03 32.98 32.91 33.55 34.75 32.52 31.30 30.44 29.72 29.49 29.01 28.40 28.06 28.11 28.35 28.11 28.03 27.04 27.13 26.36 25.41 26.38 27.60 30.49
31.32 32.54 33.78 35.12 36.85 37.27 37.24 37.62 37.55 37.00 36.92 36.27 35.45 34.45 33.27 32.59 32.05 31.75 31.68 31.82 31.49 31.09 31.61 32.17 31.27 30.34 30.25 30.17 29.73 28.65 28.02 27.83 27.27 27.40 27.74 28.84 28.91 29.71 29.07 27.69 26.40 27.33 29.40
31.79 32.15 33.66 35.47 36.99 37.98 37.70 37.93 37.28 36.63 35.99 35.45 35.16 34.52 33.78 32.26 32.22 32.35 31.99 31.34 30.91 31.07 31.68 31.84 31.18 30.59 30.36 29.75 29.20 28.22 28.02 27.75 27.44 26.60 27.24 27.89 28.76 29.83 29.81 28.77 27.16 25.29 27.59
31.63 32.56 35.13 36.47 37.42 37.80 38.23 37.70 36.51 36.26 36.19 35.47 34.72 34.14 33.82 33.36 32.91 32.93 32.25 31.45 31.65 32.96 31.79 31.07 30.46 29.61 29.32 29.08 28.46 27.43 27.07 27.28 27.11 27.19 27.19 27.27 28.45 29.46 29.73 30.03 29.53 27.36 23.96
34.91 34.75 33.97 34.97 37.03 38.07 37.66 36.83 36.36 36.02 36.14 36.31 35.57 35.43 34.80 34.85 34.64 33.87 33.13 32.99 31.99 31.08 30.80 30.43 30.22 29.84 29.25 28.56 27.79 26.98 27.39 26.72 26.85 27.83 26.92 27.12 27.92 28.48 28.89 29.33 29.71 29.57 27.62
33.12 32.33 33.18 34.28 35.60 35.90 35.29 35.39 35.35 34.76 33.91 33.79 33.43 32.89 33.36 34.49 34.78 33.94 33.54 32.81 32.04 31.84 30.97 30.76 30.36 29.74 29.08 28.50 27.25 26.61 26.59 26.15 26.21 26.46 26.51 27.41 28.10 28.03 27.87 28.21 28.70 28.47 28.48
32.70 33.38 33.58 33.91 34.04 33.16 33.53 33.53 32.09 32.04 32.66 33.92 33.97 33.95 34.83 34.34 32.79 32.43 32.37 32.48 31.47 31.49 30.75 30.47 30.03 29.80 29.31 28.69 27.34 26.31 27.61 26.12 25.51 26.03 25.87 26.46 29.49 27.07 27.66 27.91 27.49 27.66 28.36
30.39 29.07 28.89 31.77 32.56 32.91 32.37 32.40 32.66 32.94 33.69 33.76 33.08 32.23 31.64 30.99 30.79 31.12 31.49 31.49 31.24 31.07 30.65 30.30 29.26 29.21 29.14 28.40 27.75 27.47 27.39 26.84 26.80 26.88 26.48 26.70 26.21 26.35 26.93 26.67 27.11 27.77 29.40
29.51 29.79 30.90 31.19 31.31 31.93 32.56 32.73 32.89 33.56 33.21 33.01 32.26 31.34 31.20 31.18 30.86 30.88 30.79 30.43 30.52 29.42 29.29 28.78 28.89 28.60 28.54 28.56 28.35 28.40 27.29 26.77 27.17 27.18 27.22 27.13 26.90 26.42 26.61 27.10 26.97 27.54 26.96
26.69 27.05 27.65 28.48 29.26 31.01 31.82 32.10 31.79 31.10 30.87 30.18 29.43 29.08 29.20 29.59 29.53 29.18 29.08 29.49 28.94 29.10 28.60 28.14 27.67 27.67 28.23 28.88 26.96 27.39 27.10 26.57 25.84 26.40 27.08 27.44 28.74 31.25 30.45 28.01 26.42 26.51 26.38
27.60 23.40 29.12 30.27 29.29 28.53 28.52 28.73 28.03 28.70 29.10 28.05 27.71 28.89 28.72 28.50 27.78 27.50 27.62 27.62 27.58 26.97 26.93 26.80 26.87 26.96 28.48 32.10 33.67 32.90 29.69 28.91 26.95 26.40 26.33 26.68 30.53 31.21 33.89 34.39 34.69 31.70 26.47
28.61 24.83 21.62 22.72 23.27 23.02 25.92 24.04 26.96 27.16 26.63 25.71 26.44 26.90 27.11 26.77 26.73 26.95 26.86 26.56 26.31 26.54 25.72 25.78 25.82 25.90 26.41 31.08 32.08 32.89 30.51 29.49 28.71 28.62 28.70 28.01 28.92 29.99 27.85 31.16 33.49 33.74 34.92
19.06 18.65 17.44 16.99 22.55 23.26 23.79 25.27 25.53 23.36 24.49 24.23 24.51 25.22 25.30 25.17 25.23 25.05 24.85 24.17 24.77 24.73 24.79 25.30 25.73 25.50 26.26 30.61 31.40 31.68 29.02 27.75 27.27 27.64 28.52 28.97 28.51 27.86 28.35 27.70 27.32 27.89 28.53
24.63 25.97 18.44 14.41 16.01 18.77 21.13 20.64 22.70 22.99 22.70 22.88 22.86 23.50 23.92 23.18 23.75 24.12 22.88 23.24 23.83 23.75 23.85 24.72 24.33 25.11 25.88 29.43 30.00 29.43 26.99 26.61 26.23 27.01 27.41 27.77 27.91 30.80 32.30 29.67 28.46 27.97 27.97
30.67 30.42 27.99 12.79 14.33 20.10 20.14 20.29 21.11 20.10 19.94 21.41 21.99 22.94 22.92 22.88 21.64 21.90 22.41 22.74 22.73 23.48 23.91 24.42 24.67 25.96 23.86 27.53 28.82 28.39 25.89 24.89 25.27 25.78 26.86 30.59 29.81 31.93 32.33 29.10 27.81 26.40 27.16
31.20 30.84 15.66 13.49 14.11 17.27 13.14 18.25 17.83 17.19 20.11 21.50 21.89 21.76 21.80 21.63 21.52 21.25 21.59 21.87 21.88 22.38 21.44 22.78 22.92 22.85 23.77 23.63 28.68 29.64 27.02 26.86 26.26 26.10 26.02 27.09 30.98 31.80 32.06 32.35 29.95 29.17 29.19
19.25 10.69 9.23 6.80 9.31 8.14 6.52 10.62 13.07 18.86 19.70 20.06 20.28 20.30 20.47 21.33 22.64 21.63 21.68 22.46 21.73 20.44 20.23 20.27 20.81 22.49 23.32 26.82 28.09 29.79 30.41 30.25 27.61 28.02 28.84 28.77 31.25 31.90 32.37 31.57 32.20 32.70 32.60
6.64 3.78 2.24 2.35 4.72 3.19 4.04 7.28 14.60 17.32 18.55 18.46 18.29 18.82 20.26 21.49 22.16 21.27 21.54 20.77 20.64 19.65 19.63 20.26 20.15 20.92 23.67 24.07 28.27 30.02 30.57 30.62 27.70 27.19 28.02 30.55 31.22 31.78 31.31 32.59 32.78 32.71 29.18
6.53 1.52 1.36 5.84 6.55 4.96 5.13 5.57 11.76 16.29 16.32 16.28 16.98 18.21 18.81 20.69 21.40 21.53 21.93 20.95 20.08 19.77 20.28 20.28 20.67 21.64 22.86 23.82 24.81 25.24 25.68 28.36 28.29 28.85 27.73 29.08 30.07 30.79 30.20 30.72 31.56 29.86 29.30
2.41 -0.89 -1.11 0.18 3.26 3.60 3.78 4.63 9.37 13.27 13.89 15.81 16.55 17.50 18.97 18.76 19.34 20.71 20.67 21.36 22.77 23.55 23.41 24.06 23.55 23.00 22.49 25.01 28.47 28.96 28.06 28.68 28.64 28.92 27.00 25.75 25.53 25.38 26.06 26.47 26.76 27.95 29.62
0.43 0.03 2.22 -3.13 3.37 1.79 3.68 4.59 4.61 10.67 11.84 13.85 16.73 16.81 19.09 18.22 19.77 20.05 20.03 25.46 26.82 27.82 27.42 27.70 26.48 25.91 28.29 29.41 30.06 30.42 30.42 30.63 30.95 27.49 26.12 25.48 26.20 25.24 24.92 24.99 25.23 25.96 26.89
MSLP
1017.17 1017.57 1018.14 1018.71 1019.32 1019.85 1020.37 1020.85 1021.37 1021.81 1022.14 1022.61 1023.00 1023.27 1023.47 1023.57 1023.66 1023.61 1023.60 1023.73 1023.89 1024.09 1024.39 1024.64 1024.74 1024.74 1024.69 1024.63 1024.50 1024.36 1024.11 1023.81 1023.13 1022.69 1021.87 1021.52 1021.13 1021.24 1021.08 1020.70 1020.44 1020.21 1020.06
1017.37 1018.01 1018.54 1019.02 1019.43 1019.94 1020.42 1020.94 1021.32 1021.71 1022.02 1022.29 1022.60 1022.84 1023.20 1023.49 1023.52 1023.68 1023.81 1023.83 1023.88 1024.10 1024.38 1024.58 1024.84 1024.88 1024.79 1024.69 1024.66 1024.64 1024.71 1024.50 1024.20 1024.09 1023.61 1022.98 1021.92 1021.62 1021.44 1021.20 1021.01 1020.78 1020.59
1017.27 1017.97 1018.68 1019.26 1019.59 1020.03 1020.43 1020.85 1021.24 1021.63 1022.01 1022.32 1022.68 1023.06 1023.28 1023.61 1023.84 1023.87 1023.83 1023.82 1023.92 1024.14 1024.28 1024.47 1024.78 1024.91 1024.89 1024.85 1024.80 1024.87 1024.99 1025.11 1024.83 1024.50 1024.43 1024.11 1024.30 1023.57 1021.88 1021.55 1021.26 1021.12 1021.06
1017.59 1018.18 1018.82 1019.43 1019.91 1020.32 1020.61 1020.85 1021.30 1021.73 1022.06 1022.26 1022.64 1022.98 1023.31 1023.64 1023.70 1023.76 1023.93 1023.99 1024.07 1024.20 1024.30 1024.48 1024.77 1024.91 1024.90 1024.80 1024.73 1024.77 1025.08 1025.14 1025.29 1024.98 1024.77 1024.93 1025.14 1024.98 1023.70 1022.34 1021.76 1021.42 1020.98
1017.59 1018.21 1018.66 1019.28 1019.89 1020.28 1020.83 1021.29 1021.80 1022.22 1022.55 1022.80 1023.04 1023.34 1023.64 1023.78 1023.85 1023.99 1024.13 1024.32 1024.23 1024.20 1024.30 1024.51 1024.76 1024.94 1025.00 1024.89 1024.81 1024.89 1025.13 1025.31 1025.40 1025.43 1025.45 1025.30 1025.14 1025.22 1025.39 1024.07 1022.33 1022.22 1021.56
1018.07 1018.69 1019.34 1019.82 1020.32 1020.69 1021.05 1021.44 1021.86 1022.36 1022.67 1023.01 1023.39 1023.70 1023.98 1024.12 1024.31 1024.41 1024.48 1024.40 1024.41 1024.43 1024.34 1024.36 1024.63 1024.76 1024.82 1024.74 1024.74 1024.80 1024.93 1025.11 1025.26 1025.14 1025.17 1025.29 1025.37 1025.39 1025.45 1025.40 1024.19 1022.63 1021.65
1018.39 1018.88 1019.49 1020.06 1020.60 1021.06 1021.49 1021.90 1022.26 1022.73 1022.99 1023.24 1023.50 1023.73 1023.95 1024.16 1024.35 1024.49 1024.60 1024.59 1024.58 1024.53 1024.45 1024.41 1024.52 1024.60 1024.51 1024.43 1024.45 1024.62 1024.83 1024.96 1025.01 1024.97 1024.90 1024.78 1024.95 1025.00 1025.19 1025.37 1024.93 1024.21 1022.00
1019.37 1019.57 1019.86 1020.28 1020.84 1021.38 1021.83 1022.14 1022.50 1022.90 1023.21 1023.42 1023.59 1023.78 1024.03 1024.24 1024.39 1024.46 1024.55 1024.57 1024.61 1024.54 1024.30 1024.28 1024.31 1024.28 1024.23 1024.26 1024.32 1024.49 1024.58 1024.57 1024.54 1024.51 1024.47 1024.42 1024.39 1024.54 1024.70 1024.85 1024.95 1024.63 1023.67
1020.46 1020.40 1020.50 1020.75 1021.14 1021.54 1021.88 1022.24 1022.67 1023.04 1023.22 1023.36 1023.57 1023.80 1023.99 1024.17 1024.32 1024.39 1024.44 1024.41 1024.34 1024.16 1024.14 1024.19 1024.20 1024.17 1024.20 1024.18 1024.19 1024.32 1024.32 1024.25 1024.09 1023.93 1023.89 1023.97 1023.93 1023.88 1023.93 1024.14 1024.38 1024.56 1024.16
1021.26 1021.22 1021.12 1021.10 1021.13 1021.57 1022.01 1022.31 1022.60 1022.86 1023.10 1023.30 1023.59 1023.85 1024.03 1024.16 1024.32 1024.40 1024.35 1024.24 1024.13 1024.02 1023.96 1023.92 1023.90 1023.85 1023.80 1023.78 1023.91 1023.95 1023.87 1023.94 1023.69 1023.56 1023.49 1023.35 1023.26 1023.38 1023.46 1023.48 1023.50 1023.73 1023.90
1022.10 1021.82 1021.53 1021.52 1021.77 1022.15 1022.60 1023.02 1023.25 1023.55 1023.72 1023.80 1024.00 1024.15 1024.16 1024.10 1024.12 1024.23 1024.23 1024.06 1023.88 1023.75 1023.78 1023.68 1023.64 1023.57 1023.51 1023.33 1023.33 1023.21 1023.10 1023.20 1023.09 1023.10 1023.12 1022.86 1022.78 1022.76 1022.78 1022.83 1022.89 1022.98 1023.11
1022.75 1022.46 1022.58 1022.59 1022.78 1023.10 1023.34 1023.65 1023.93 1024.18 1024.18 1024.17 1024.16 1024.18 1024.06 1024.06 1024.11 1023.98 1023.83 1023.67 1023.47 1023.18 1023.05 1022.96 1023.04 1022.97 1022.91 1022.89 1022.81 1022.73 1022.70 1022.59 1022.60 1022.43 1022.50 1022.37 1022.19 1022.09 1022.00 1022.04 1022.12 1022.26 1022.12
1023.57 1023.48 1023.55 1023.64 1023.75 1023.72 1023.96 1024.12 1024.27 1024.36 1024.36 1024.36 1024.40 1024.33 1024.30 1024.16 1023.93 1023.75 1023.54 1023.31 1023.22 1023.10 1022.86 1022.68 1022.49 1022.35 1022.22 1022.20 1022.22 1022.19 1022.09 1021.98 1021.82 1021.70 1021.74 1021.59 1021.60 1021.53 1021.39 1021.41 1021.42 1021.33 1021.25
1024.48 1024.43 1024.38 1024.42 1024.47 1024.51 1024.57 1024.70 1024.75 1024.70 1024.70 1024.58 1024.46 1024.38 1024.25 1024.05 1023.88 1023.66 1023.34 1023.05 1022.88 1022.77 1022.77 1022.43 1022.20 1022.14 1021.82 1021.70 1021.60 1021.61 1021.43 1021.27 1021.09 1020.93 1020.87 1020.78 1020.77 1020.69 1020.70 1020.67 1020.55 1020.52 1020.54
1025.20 1025.16 1025.15 1024.98 1024.89 1024.89 1025.00 1025.10 1025.06 1025.06 1024.97 1024.78 1024.65 1024.48 1024.26 1024.02 1023.74 1023.59 1023.28 1023.01 1022.68 1022.45 1022.19 1022.14 1022.04 1021.78 1021.53 1021.26 1021.00 1020.86 1020.62 1020.41 1020.29 1020.07 1019.86 1019.67 1019.62 1019.58 1019.62 1019.72 1019.75 1019.89 1019.86
1025.82 1025.50 1025.42 1025.53 1025.66 1025.64 1025.58 1025.39 1025.18 1025.14 1025.01 1024.95 1024.77 1024.42 1024.18 1023.92 1023.58 1023.33 1023.03 1022.80 1022.52 1022.21 1021.87 1021.64 1021.50 1021.19 1020.91 1020.60 1020.26 1019.97 1019.59 1019.35 1019.15 1018.80 1018.64 1018.49 1018.54 1018.46 1018.41 1018.44 1018.37 1018.64 1018.78
1025.81 1025.81 1026.01 1025.93 1026.05 1025.88 1025.74 1025.54 1025.44 1025.29 1025.23 1025.09 1024.75 1024.44 1024.07 1023.83 1023.50 1023.16 1022.81 1022.42 1021.98 1021.54 1021.28 1021.08 1020.90 1020.52 1020.13 1019.86 1019.45 1019.03 1018.64 1018.31 1017.98 1017.72 1017.50 1017.41 1017.36 1017.51 1017.57 1017.63 1017.45 1017.40 1017.37
1025.83 1026.14 1026.30 1026.46 1026.16 1026.03 1025.89 1025.66 1025.44 1025.45 1025.20 1024.91 1024.63 1024.32 1024.03 1023.76 1023.38 1022.99 1022.61 1022.16 1021.69 1021.26 1020.96 1020.64 1020.31 1019.82 1019.36 1019.01 1018.48 1018.21 1017.87 1017.55 1017.19 1016.98 1016.83 1016.66 1016.48 1016.58 1016.72 1016.73 1016.73 1016.65 1016.66
1025.99 1026.24 1026.57 1026.51 1026.50 1026.29 1026.09 1025.93 1025.68 1025.54 1025.28 1024.94 1024.66 1024.31 1023.95 1023.58 1023.13 1022.71 1022.33 1021.91 1021.44 1020.95 1020.54 1020.04 1019.47 1019.01 1018.59 1018.39 1017.88 1017.39 1017.13 1016.85 1016.42 1016.24 1016.04 1015.88 1015.62 1015.49 1015.54 1015.52 1015.54 1015.50 1015.24
1025.96 1026.19 1026.66 1026.88 1026.71 1026.50 1026.24 1026.12 1025.71 1025.41 1025.21 1024.89 1024.50 1024.09 1023.70 1023.25 1022.89 1022.44 1021.91 1021.44 1021.05 1020.50 1020.00 1019.42 1019.00 1018.57 1018.02 1017.70 1017.14 1016.71 1016.35 1015.92 1015.61 1015.30 1014.99 1014.75 1014.42 1014.27 1014.29 1014.26 1014.32 1014.15 1014.25
1026.12 1026.42 1026.95 1027.34 1027.20 1026.89 1026.77 1026.45 1025.90 1025.42 1024.96 1024.64 1024.22 1023.72 1023.39 1022.94 1022.43 1021.88 1021.39 1021.00 1020.57 1020.10 1019.68 1019.12 1018.56 1018.10 1017.54 1016.97 1016.32 1015.76 1015.19 1015.01 1014.58 1014.23 1013.91 1013.56 1013.25 1012.98 1012.90 1012.82 1013.05 1012.98 1013.58
1027.25 1027.27 1027.90 1027.91 1027.68 1027.18 1027.06 1026.55 1025.84 1025.07 1024.73 1024.30 1023.85 1023.33 1022.95 1022.47 1021.83 1021.39 1020.91 1020.45 1020.04 1019.61 1019.07 1018.58 1017.95 1017.23 1016.59 1016.00 1015.39 1014.83 1014.11 1013.63 1013.36 1013.10 1012.78 1012.59 1012.43 1012.04 1012.03 1011.83 1011.70 1011.81 1012.01
1028.21 1027.76 1028.15 1028.02 1027.56 1027.52 1027.26 1026.57 1025.54 1024.97 1024.47 1023.98 1023.51 1023.07 1022.51 1021.92 1021.40 1020.96 1020.48 1020.04 1019.57 1019.11 1018.55 1017.90 1017.15 1016.36 1015.65 1015.14 1014.54 1013.89 1013.28 1012.74 1012.36 1012.07 1011.78 1011.51 1011.18 1010.98 1010.93 1010.72 1010.73 1010.77 1010.92
1028.28 1027.91 1028.15 1028.27 1027.91 1027.26 1026.85 1026.45 1025.71 1024.89 1024.31 1023.77 1023.25 1022.72 1022.08 1021.42 1020.80 1020.54 1020.05 1019.60 1019.09 1018.52 1017.75 1016.94 1016.18 1015.50 1014.87 1014.30 1013.74 1013.14 1012.56 1011.99 1011.55 1011.26 1010.87 1010.50 1010.19 1010.03 1009.94 1009.88 1009.99 1009.90 1010.11
1028.35 1028.11 1028.56 1028.29 1027.53 1026.85 1026.44 1025.73 1025.30 1024.84 1024.22 1023.56 1022.92 1022.21 1021.58 1020.99 1020.46 1019.91 1019.48 1018.96 1018.33 1017.63 1016.57 1015.91 1015.45 1014.80 1013.99 1013.33 1012.62 1011.93 1011.41 1011.00 1010.60 1010.17 1009.85 1009.64 1009.49 1009.35 1009.27 1009.26 1009.24 1009.30 1009.40
1028.17 1028.27 1027.93 1027.66 1026.83 1026.38 1025.85 1025.29 1024.78 1024.59 1024.06 1023.32 1022.41 1021.72 1021.04 1020.43 1019.83 1019.27 1018.58 1018.07 1017.37 1016.48 1015.97 1015.29 1014.67 1013.97 1013.22 1012.39 1011.78 1011.11 1010.42 1009.86 1009.34 1008.99 1009.02 1008.80 1008.54 1008.46 1008.40 1008.34 1008.27 1008.33 1008.36
Wind_Speed
5 7 8 8 8 7 9 8 8 6 4 2 3 2 3 2 1 2 4 5 4 4 3 2 3 4 4 4 5 3 4 4 8 4 5 3 3 4 5 4 4 8 9
7 7 8 7 9 9 8 8 7 6 4 3 2 2 3 1 2 2 2 4 5 4 3 2 2 3 3 5 5 5 4 3 5 3 1 5 5 4 3 4 5 7 8
11 9 9 8 8 9 9 8 7 7 4 4 3 3 3 3 2 1 2 3 4 3 3 3 1 1 2 2 3 3 5 3 3 6 3 4 3 5 3 4 4 6 9
4 7 8 8 8 7 7 8 7 7 4 5 3 3 3 3 2 2 1 2 1 2 2 2 1 1 1 2 1 2 2 2 3 2 3 1 2 2 6 3 3 7 10
9 9 10 10 6 7 7 7 7 6 4 4 4 3 2 1 1 1 2 1 1 2 2 3 2 1 1 1 1 1 1 0 1 0 1 2 0 1 2 7 6 5 5
4 6 6 7 6 5 7 7 8 5 5 5 4 3 2 1 1 0 0 1 1 2 2 1 2 2 2 1 1 2 2 2 2 2 1 2 1 1 1 3 6 12 4
5 8 10 8 7 7 6 5 6 5 4 5 4 3 2 1 1 2 2 1 2 1 3 2 3 3 3 3 2 2 3 4 3 3 3 2 3 2 2 3 3 4 4
5 5 5 5 6 6 6 6 6 5 5 4 4 3 2 1 1 1 2 2 2 3 3 4 4 5 4 3 3 2 3 5 4 6 4 3 3 3 3 3 2 3 4
8 5 5 6 6 7 7 6 6 6 5 5 4 2 0 0 2 3 3 3 3 3 5 5 5 5 5 5 4 4 5 5 5 5 5 4 3 4 4 3 3 3 3
8 7 3 4 4 5 5 6 6 6 5 4 2 3 3 2 3 3 5 5 5 3 5 5 6 6 5 5 5 5 5 5 4 5 5 5 3 5 4 4 4 4 4
6 6 4 5 6 6 6 6 6 6 6 6 5 5 3 3 4 4 5 5 4 5 5 6 6 6 6 6 5 6 6 6 6 5 6 8 6 5 4 4 4 5 5
6 8 8 9 9 8 8 8 7 7 6 4 4 5 5 5 5 5 5 5 6 5 6 6 6 6 6 6 6 7 7 7 7 8 6 8 7 7 6 5 7 5 6
7 7 8 8 8 8 7 6 6 5 5 6 6 6 6 6 6 6 6 6 6 7 6 6 6 6 6 6 7 8 8 8 10 10 9 10 7 9 7 6 7 6 6
4 5 6 6 5 5 6 4 2 4 4 4 5 5 6 6 6 6 6 6 6 6 7 6 7 7 6 7 7 9 9 10 10 10 11 11 11 10 9 9 9 8 7
4 3 2 4 4 4 4 4 4 5 5 5 5 6 6 6 6 6 7 7 6 7 7 7 7 7 7 6 7 9 11 11 11 11 12 12 14 20 16 8 8 8 8
2 2 3 3 3 3 3 3 4 5 5 6 7 7 7 7 6 7 7 6 7 7 7 7 7 8 6 16 21 20 11 10 11 12 12 12 19 18 23 23 23 15 10
6 3 2 2 3 3 3 4 5 5 5 6 6 7 7 7 6 7 8 9 9 8 7 7 6 9 10 20 23 23 12 12 11 11 10 9 9 15 11 18 22 21 25
3 4 4 3 4 3 4 5 5 5 6 6 7 6 7 8 9 9 8 8 9 8 6 8 9 11 10 22 22 23 14 13 14 12 12 12 11 9 10 9 10 12 12
4 5 4 4 3 4 4 3 5 5 5 6 6 6 6 10 9 8 9 9 10 7 9 10 11 10 9 18 23 22 12 12 13 12 13 12 13 16 21 14 14 13 13
5 4 4 2 3 4 3 3 5 5 6 6 8 8 8 9 10 10 9 8 8 9 9 11 10 14 13 19 23 19 9 11 9 11 12 21 19 23 23 15 14 14 11
5 1 3 2 5 5 4 5 5 6 6 7 9 8 8 9 9 8 7 8 9 9 9 10 10 11 13 13 21 21 11 8 9 9 10 10 23 25 24 24 13 13 10
4 3 1 4 6 4 2 5 6 6 7 7 9 9 9 8 8 9 9 9 8 8 9 9 9 9 10 17 18 21 22 19 10 9 7 10 22 24 24 19 21 23 20
4 3 2 5 5 4 2 5 6 8 7 8 8 9 9 9 10 9 9 8 7 7 8 8 8 9 9 9 20 22 23 23 14 8 12 22 21 22 20 25 25 23 9
4 3 5 6 8 5 6 5 8 8 7 8 8 8 7 9 7 7 7 7 7 7 9 9 10 9 9 9 8 9 10 18 14 16 13 15 18 18 15 12 14 10 8
4 2 4 5 8 6 7 6 6 6 7 7 7 8 7 8 8 8 7 7 8 10 9 8 8 8 8 8 18 17 9 8 11 14 10 9 8 8 7 8 8 6 6
4 4 6 5 8 6 7 7 5 6 6 7 6 6 6 6 7 7 8 14 18 20 22 21 16 10 19 23 24 23 22 22 22 10 6 7 8 9 9 9 9 9 12
Wind_Direction
182 161 157 151 139 137 140 150 148 156 138 128 129 121 167 155 129 168 148 134 129 118 96 66 20 12 26 1 359 336 10 334 344 339 344 349 31 12 0 10 9 11 3
140 149 148 150 157 153 150 148 153 158 161 142 158 145 148 160 133 138 141 152 145 147 143 102 35 23 19 16 12 21 348 350 2 349 302 4 336 5 351 17 8 4 352
159 158 158 160 149 155 161 157 156 149 136 124 103 72 63 58 72 161 204 203 165 169 151 148 150 44 70 38 19 14 25 360 330 16 76 5 340 325 319 348 359 6 344
124 150 154 161 162 164 148 143 145 142 134 142 133 148 161 157 209 171 161 165 211 201 153 155 151 49 42 39 15 49 33 19 359 333 39 105 180 333 327 320 350 355 338
167 170 174 161 162 149 148 132 121 114 101 88 100 115 131 88 58 64 126 82 24 132 168 174 178 214 248 257 193 80 13 156 282 184 344 345 330 197 186 300 316 333 320
168 126 97 116 129 133 134 139 138 135 125 113 89 94 119 126 90 26 198 305 13 341 335 240 186 217 249 266 299 315 299 266 235 273 270 189 235 210 131 279 308 312 306
114 140 144 157 156 157 147 138 132 131 126 116 113 121 133 145 205 238 246 271 329 308 291 249 227 245 248 260 258 262 268 271 247 230 248 237 228 218 206 210 253 294 318
52 110 134 137 141 135 145 144 145 132 132 132 141 138 145 158 231 241 224 235 231 252 264 266 247 249 250 253 258 253 257 246 252 260 241 248 249 233 220 215 230 288 273
22 53 123 149 149 157 166 151 129 127 147 156 152 145 100 272 263 262 241 241 258 262 264 266 267 265 266 260 252 243 248 255 256 253 253 243 242 236 223 226 204 203 302
16 12 333 217 187 151 135 126 132 138 148 131 75 53 35 360 308 285 276 272 274 262 271 269 267 271 267 261 254 259 249 242 254 258 257 258 236 241 232 222 217 208 224
3 360 43 64 90 92 91 88 74 69 57 46 43 32 354 304 291 290 285 275 273 268 260 255 256 256 260 258 258 256 260 260 265 253 251 262 253 258 245 225 214 224 217
36 28 29 57 65 67 61 59 51 51 40 28 359 317 314 334 309 295 296 290 279 271 260 261 256 252 250 255 252 261 269 250 251 256 241 247 259 250 246 246 253 227 223
28 53 53 62 69 74 71 62 47 30 18 10 351 334 321 316 304 299 300 302 303 299 297 288 277 271 259 252 242 244 252 247 248 250 246 251 235 249 251 240 250 251 248
40 70 71 65 64 68 71 68 38 354 340 334 325 315 310 308 306 302 300 297 293 292 286 276 273 265 263 262 263 264 258 253 249 243 242 242 240 239 240 242 246 250 257
95 70 78 90 77 56 33 20 2 342 336 328 317 301 293 290 290 289 285 282 280 283 276 276 265 264 265 264 257 251 251 249 246 240 238 236 234 242 241 239 240 237 247
176 234 194 79 46 27 347 326 330 327 338 323 312 308 303 301 297 291 288 278 268 260 259 258 259 266 264 280 285 288 274 252 243 247 238 234 244 247 250 252 250 228 227
197 202 263 277 297 311 311 317 318 321 315 304 298 297 299 300 296 298 298 299 298 292 277 269 265 276 276 287 288 281 278 277 273 269 265 250 239 239 230 248 256 259 260
224 269 280 284 277 294 315 318 329 314 311 309 302 302 302 304 302 296 288 287 291 277 270 275 269 272 278 286 288 288 285 279 275 272 269 266 261 235 236 232 235 239 242
277 277 265 242 284 306 314 344 320 303 304 302 298 302 299 302 297 296 298 293 287 292 293 288 286 277 283 286 288 288 283 271 269 269 264 257 259 250 253 253 249 245 240
283 286 315 274 350 315 341 329 314 316 305 307 307 301 296 295 298 293 293 292 290 293 296 296 295 290 293 290 289 288 273 270 262 261 258 260 262 255 251 250 247 248 246
301 19 53 8 288 316 354 312 303 294 297 305 299 297 295 294 289 288 292 291 288 288 283 284 284 278 274 274 282 282 274 262 259 258 256 248 251 256 259 258 243 241 238
350 353 313 282 283 290 358 298 288 298 307 300 299 300 298 297 299 296 294 291 289 287 287 286 285 278 271 275 280 282 280 276 265 266 260 255 261 264 262 258 254 255 251
285 268 273 294 293 288 257 301 299 309 302 300 294 291 293 297 296 293 291 296 289 284 286 283 280 278 278 270 277 283 284 285 284 269 259 265 261 257 255 254 249 254 244
309 319 341 325 306 303 308 261 292 306 298 291 288 286 286 292 297 292 283 284 282 281 277 278 278 278 278 275 271 267 271 274 275 276 276 270 264 259 249 249 247 250 240
291 290 285 272 279 289 287 277 288 298 287 285 280 283 284 281 283 280 275 275 275 275 284 297 295 296 287 282 289 294 284 273 252 258 250 251 251 248 246 247 237 235 240
297 311 299 285 289 291 293 293 286 291 281 295 293 291 291 285 281 285 289 288 298 308 310 306 306 297 298 303 304 306 305 300 295 286 265 252 235 231 229 231 233 231 238